Notices

What's New in latest Release from April 7th, 2021:

- Updated Glossary, including Speed of Maximum Gust, and Total Hourly Precipitation

- Updated national and regional climate services offices contacts and prices information

- Addition of station inventory lists for 1981-2010, 1971-2000, and 1961-1990 Normals.

If you haven't already, please take our survey and provide feedback about our website: https://eccc.sondage-survey.ca/f/LanguageSelection.aspx?s=442ca660-fcf1-47c0-95a9-59707d6fd709

Hourly Data Report for April 10, 2004

TORONTO CITY
ONTARIO

43°40'00.000" N
79°24'00.000" W
112.50 m
6158355
71508
XTO

Download Data

Hourly Data (April 2004)
Hourly Data Report for April 10, 2004
TIME
LST
Temp Definition
°C
Dew Point Definition
°C
Rel Hum Definition
%
Precip. Amount Definition
mm

Wind Dir Definition
10's deg

Wind Spd Definition
km/h
Visibility Definition
km
Stn Press Definition
kPa
Hmdx Definition


Wind Chill Definition


Weather Definition


00:00 5.7 -3.2 53   LegendMM LegendMM LegendMM 100.17     LegendNANA
01:00 5.5 -2.4 57   LegendMM LegendMM LegendMM 100.17     LegendNANA
02:00 5.3 -3.3 54   LegendMM LegendMM LegendMM 100.15     LegendNANA
03:00 5.1 -3.5 54   LegendMM LegendMM LegendMM 100.12     LegendNANA
04:00 4.6 -3.3 56   LegendMM LegendMM LegendMM 100.14     LegendNANA
05:00 3.9 -3.2 60   LegendMM LegendMM LegendMM 100.19     LegendNANA
06:00 2.8 -3.0 66   LegendMM LegendMM LegendMM 100.24     LegendNANA
07:00 3.1 -4.0 60   LegendMM LegendMM LegendMM 100.30     LegendNANA
08:00 3.8 -3.8 58   LegendMM LegendMM LegendMM 100.33     LegendNANA
09:00 4.3 -3.6 56   LegendMM LegendMM LegendMM 100.32     LegendNANA
10:00 5.8 -2.4 56   LegendMM LegendMM LegendMM 100.34     LegendNANA
11:00 7.6 -3.4 46   LegendMM LegendMM LegendMM 100.35     LegendNANA
12:00 7.9 -3.1 46   LegendMM LegendMM LegendMM 100.35     LegendNANA
13:00 7.7 -4.2 43   LegendMM LegendMM LegendMM 100.32     LegendNANA
14:00 8.2 -4.0 42   LegendMM LegendMM LegendMM 100.28     LegendNANA
15:00 7.7 -3.9 44   LegendMM LegendMM LegendMM 100.25     LegendNANA
16:00 8.3 -3.0 45   LegendMM LegendMM LegendMM 100.29     LegendNANA
17:00 7.4 -3.5 46   LegendMM LegendMM LegendMM 100.33     LegendNANA
18:00 5.4 -4.0 51   LegendMM LegendMM LegendMM 100.45     LegendNANA
19:00 4.1 -3.7 57   LegendMM LegendMM LegendMM 100.47     LegendNANA
20:00 3.2 -4.1 59   LegendMM LegendMM LegendMM 100.54     LegendNANA
21:00 1.9 -4.1 64   LegendMM LegendMM LegendMM 100.60     LegendNANA
22:00 1.0 -4.3 68   LegendMM LegendMM LegendMM 100.61     LegendNANA
23:00 0.7 -5.6 63   LegendMM LegendMM LegendMM 100.61     LegendNANA

Notes on Data Quality.

Legend

  • E = Estimated
  • M = Missing
  • NA = Not Available*
  • [empty] = Indicates an unobserved value
Date modified: